| time (UTC) | temp F | wind direction | speed knots | gust knots | rain 1hr in | rain 24hr in | rain mn in | humidity % | barometer mb |
| 20260502231500 | 0 | 45 | 0.0 | 0.0 | 0.00 | 0.00 | 0.00 | 1020.8 | |
| 20260502230700 | 0 | 45 | 0.0 | 0.0 | 0.00 | 0.00 | 0.00 | 1020.8 | |
| 20260502225900 | 0 | 45 | 0.0 | 0.0 | 0.00 | 0.00 | 0.00 | 1020.8 | |
| 20260502225100 | 0 | 45 | 0.0 | 0.0 | 0.00 | 0.00 | 0.00 | 1020.8 | |
| 20260502224301 | 0 | 45 | 0.0 | 0.0 | 0.00 | 0.00 | 0.00 | 1020.9 | |
| 20260502223500 | 0 | 45 | 0.0 | 0.0 | 0.00 | 0.00 | 0.00 | 1020.8 | |
| 20260502222701 | 0 | 45 | 0.0 | 0.0 | 0.00 | 0.00 | 0.00 | 1020.9 | |
| 20260502221857 | 0 | 45 | 0.0 | 0.0 | 0.00 | 0.00 | 0.00 | 1020.8 | |
| 20260502221057 | 0 | 45 | 0.0 | 0.0 | 0.00 | 0.00 | 0.00 | 1020.8 | |
| 20260502220255 | 0 | 45 | 0.0 | 0.0 | 0.00 | 0.00 | 0.00 | 1020.8 | |
| 20260502215455 | 0 | 45 | 0.0 | 0.0 | 0.00 | 0.00 | 0.00 | 1020.8 | |
| 20260502214656 | 0 | 45 | 0.0 | 0.0 | 0.00 | 0.00 | 0.00 | 1020.7 | |
| 20260502213856 | 0 | 45 | 0.0 | 0.0 | 0.00 | 0.00 | 0.00 | 1020.7 | |
| 20260502213056 | 0 | 45 | 0.0 | 0.0 | 0.00 | 0.00 | 0.00 | 1020.7 | |
| 20260502212254 | 0 | 45 | 0.0 | 0.0 | 0.00 | 0.00 | 0.00 | 1020.6 | |
| 20260502211455 | 0 | 45 | 0.0 | 0.0 | 0.00 | 0.00 | 0.00 | 1020.6 | |
| 20260502205853 | 0 | 45 | 0.0 | 0.0 | 0.00 | 0.00 | 0.00 | 1020.6 | |
| 20260502205054 | 0 | 45 | 0.0 | 0.0 | 0.00 | 0.00 | 0.00 | 1020.7 | |
| 20260502204253 | 0 | 45 | 0.0 | 0.0 | 0.00 | 0.00 | 0.00 | 1020.6 | |
| 20260502203448 | 0 | 45 | 0.0 | 0.0 | 0.00 | 0.00 | 0.00 | 1020.6 | |
| 20260502202647 | 0 | 45 | 0.0 | 0.0 | 0.00 | 0.00 | 0.00 | 1020.6 | |
| 20260502201841 | 0 | 45 | 0.0 | 0.0 | 0.00 | 0.00 | 0.00 | 1020.6 | |
| 20260502201041 | 0 | 45 | 0.0 | 0.0 | 0.00 | 0.00 | 0.00 | 1020.5 | |
| 20260502200240 | 0 | 45 | 0.0 | 0.0 | 0.00 | 0.00 | 0.00 | 1020.5 | |
| 20260502195437 | 0 | 45 | 0.0 | 0.0 | 0.00 | 0.00 | 0.00 | 1020.5 | |
| 20260502194632 | 0 | 45 | 0.0 | 0.0 | 0.00 | 0.00 | 0.00 | 1020.4 | |
| 20260502193832 | 0 | 45 | 0.0 | 0.0 | 0.00 | 0.00 | 0.00 | 1020.4 | |
| 20260502193027 | 0 | 45 | 0.0 | 0.0 | 0.00 | 0.00 | 0.00 | 1020.4 | |
| 20260502192223 | 0 | 45 | 0.0 | 0.0 | 0.00 | 0.00 | 0.00 | 1020.2 | |
| 20260502191419 | 0 | 45 | 0.0 | 0.0 | 0.00 | 0.00 | 0.00 | 1020.0 | |
| 20260502190616 | 0 | 45 | 0.0 | 0.0 | 0.00 | 0.00 | 0.00 | 1019.9 | |
| 20260502185813 | 0 | 45 | 0.0 | 0.0 | 0.00 | 0.00 | 0.00 | 1019.8 | |
| 20260502185012 | 0 | 45 | 0.0 | 0.0 | 0.00 | 0.00 | 0.00 | 1019.6 | |
| 20260502184210 | 0 | 45 | 0.0 | 0.0 | 0.00 | 0.00 | 0.00 | 1019.3 | |
| 20260502183406 | 0 | 45 | 0.0 | 0.0 | 0.00 | 0.00 | 0.00 | 1019.0 | |
| 20260502182607 | 0 | 135 | 0.0 | 0.0 | 0.00 | 0.00 | 0.00 | 1018.8 | |
| 20260502181806 | 0 | 135 | 0.0 | 0.0 | 0.00 | 0.00 | 0.00 | 1018.5 | |
| 20260502181006 | 0 | 135 | 0.0 | 0.0 | 0.00 | 0.00 | 0.00 | 1018.2 | |
| 20260502180207 | 0 | 135 | 0.0 | 0.0 | 0.00 | 0.00 | 0.00 | 1017.9 | |
| 20260502164149 | 0 | 45 | 0.0 | 0.0 | 0.00 | 0.00 | 0.00 | 1017.1 | |
| 20260502163348 | 0 | 45 | 0.0 | 0.0 | 0.00 | 0.00 | 0.00 | 1017.0 | |
| 20260502162545 | 0 | 45 | 0.0 | 0.0 | 0.00 | 0.00 | 0.00 | 1016.7 | |
| 20260502161744 | 0 | 45 | 0.0 | 0.0 | 0.00 | 0.00 | 0.00 | 1016.7 | |
| 20260502160940 | 0 | 45 | 0.0 | 0.0 | 0.00 | 0.00 | 0.00 | 1016.4 | |
| 20260502160137 | 0 | 45 | 0.0 | 0.0 | 0.00 | 0.00 | 0.00 | 1016.3 | |
| 20260502152100 | 0 | 45 | 0.0 | 0.0 | 0.00 | 0.00 | 0.00 | 1016.4 | |
| 20260502151251 | 0 | 45 | 0.0 | 0.0 | 0.00 | 0.00 | 0.00 | 1016.5 | |
| 20260502150440 | 0 | 45 | 0.0 | 0.0 | 0.00 | 0.00 | 0.00 | 1016.9 | |
| 20260502130314 | 0 | 180 | 0.0 | 0.0 | 0.00 | 0.00 | 0.00 | 1017.8 | |
| 20260502123105 | 0 | 135 | 0.0 | 0.0 | 0.00 | 0.00 | 0.00 | 1018.1 | |
| 20260502122301 | 0 | 90 | 0.0 | 0.0 | 0.00 | 0.00 | 0.00 | 1018.9 | |
| 20260502121457 | 0 | 45 | 0.0 | 0.0 | 0.00 | 0.00 | 0.00 | 1019.1 | |
| 20260502120653 | 0 | 90 | 0.0 | 0.0 | 0.00 | 0.00 | 0.00 | 1019.1 | |
| 20260502115852 | 0 | 90 | 0.0 | 0.0 | 0.00 | 0.00 | 0.00 | 1018.7 | |
| 20260502115047 | 0 | 45 | 0.0 | 0.0 | 0.00 | 0.00 | 0.00 | 1018.9 | |
| 20260502114243 | 0 | 45 | 0.0 | 0.0 | 0.00 | 0.00 | 0.00 | 1019.2 | |
| 20260502113442 | 0 | 45 | 0.0 | 0.0 | 0.00 | 0.00 | 0.00 | 1019.0 | |
| 20260502112639 | 0 | 45 | 0.0 | 0.0 | 0.00 | 0.00 | 0.00 | 1019.5 | |
| 20260502111832 | 0 | 180 | 0.0 | 0.0 | 0.00 | 0.00 | 0.00 | 1019.3 | |
| 20260502111026 | 0 | 45 | 0.0 | 0.0 | 0.00 | 0.00 | 0.00 | 1019.7 | |
| 20260502110218 | 0 | 45 | 0.0 | 0.0 | 0.00 | 0.00 | 0.00 | 1020.0 | |
| 20260502105416 | 0 | 45 | 0.0 | 0.0 | 0.00 | 0.00 | 0.00 | 1020.2 | |
| 20260502104610 | 0 | 45 | 0.0 | 0.0 | 0.00 | 0.00 | 0.00 | 1020.3 | |
| 20260502103805 | 0 | 135 | 0.0 | 0.0 | 0.00 | 0.00 | 0.00 | 1020.6 | |
| 20260502103002 | 0 | 45 | 0.0 | 0.0 | 0.00 | 0.00 | 0.00 | 1020.7 | |
| 20260502102158 | 0 | 135 | 0.0 | 0.0 | 0.00 | 0.00 | 0.00 | 1020.7 | |
| 20260502101354 | 0 | 45 | 0.0 | 0.0 | 0.00 | 0.00 | 0.00 | 1021.0 | |
| 20260502100554 | 0 | 45 | 0.0 | 0.0 | 0.00 | 0.00 | 0.00 | 1021.2 | |
| 20260502090908 | 0 | 113 | 0.0 | 0.0 | 0.00 | 0.00 | 0.00 | 1022.1 | |
| 20260502071527 | 0 | 135 | 0.0 | 0.0 | 0.00 | 0.00 | 0.00 | 1023.8 | |
| 20260502070727 | 0 | 45 | 0.0 | 0.0 | 0.00 | 0.00 | 0.00 | 1023.9 | |
| 20260502065924 | 0 | 135 | 0.0 | 0.0 | 0.00 | 0.00 | 0.00 | 1023.9 | |
| 20260502065123 | 0 | 135 | 0.0 | 0.9 | 0.00 | 0.00 | 0.00 | 1024.0 | |
| 20260502064321 | 0 | 135 | 0.0 | 0.9 | 0.00 | 0.00 | 0.00 | 1024.0 | |
| 20260502063520 | 0 | 135 | 0.0 | 0.0 | 0.00 | 0.00 | 0.00 | 1024.1 | |
| 20260502062718 | 0 | 180 | 0.0 | 0.0 | 0.00 | 0.00 | 0.00 | 1024.4 | |
| 20260502061913 | 0 | 180 | 0.0 | 0.0 | 0.00 | 0.00 | 0.00 | 1024.8 | |
| 20260502061112 | 0 | 135 | 0.0 | 0.0 | 0.00 | 0.00 | 0.00 | 1025.0 | |
| 20260502060311 | 0 | 135 | 0.0 | 0.0 | 0.00 | 0.00 | 0.00 | 1025.3 | |
| 20260502055510 | 0 | 135 | 0.0 | 0.0 | 0.00 | 0.00 | 0.00 | 1025.7 | |
| 20260502054706 | 0 | 90 | 0.0 | 0.0 | 0.00 | 0.00 | 0.00 | 1025.8 | |
| 20260502053906 | 0 | 135 | 0.0 | 0.0 | 0.00 | 0.00 | 0.00 | 1026.0 | |
| 20260502053106 | 0 | 135 | 0.0 | 0.9 | 0.00 | 0.00 | 0.00 | 1026.2 | |
| 20260502052306 | 0 | 90 | 0.0 | 0.0 | 0.00 | 0.00 | 0.00 | 1026.5 | |
| 20260502051504 | 0 | 135 | 0.0 | 0.0 | 0.00 | 0.00 | 0.00 | 1026.8 | |
| 20260502050701 | 0 | 45 | 0.0 | 0.0 | 0.00 | 0.00 | 0.00 | 1026.9 | |
| 20260502045859 | 0 | 45 | 0.0 | 0.0 | 0.00 | 0.00 | 0.00 | 1027.2 | |
| 20260502045054 | 0 | 45 | 0.0 | 0.0 | 0.00 | 0.00 | 0.00 | 1027.4 | |
| 20260502044250 | 0 | 45 | 0.0 | 0.0 | 0.00 | 0.00 | 0.00 | 1027.6 | |
| 20260502043450 | 0 | 45 | 0.0 | 0.0 | 0.00 | 0.00 | 0.00 | 1027.6 | |
| 20260502042647 | 0 | 45 | 0.0 | 0.0 | 0.00 | 0.00 | 0.00 | 1027.8 | |
| 20260502041846 | 0 | 45 | 0.0 | 0.0 | 0.00 | 0.00 | 0.00 | 1028.0 | |
| 20260502041047 | 0 | 45 | 0.0 | 0.0 | 0.00 | 0.00 | 0.00 | 1028.0 | |
| 20260502040246 | 0 | 45 | 0.0 | 0.0 | 0.00 | 0.00 | 0.00 | 1027.9 | |
| 20260502035440 | 0 | 45 | 0.0 | 0.0 | 0.00 | 0.00 | 0.00 | 1027.9 | |
| 20260502034635 | 0 | 45 | 0.0 | 0.0 | 0.00 | 0.00 | 0.00 | 1027.9 | |
| 20260502033834 | 0 | 45 | 0.0 | 0.0 | 0.00 | 0.00 | 0.00 | 1028.0 | |
| 20260502033034 | 0 | 45 | 0.0 | 0.0 | 0.00 | 0.00 | 0.00 | 1028.0 | |
| 20260502032234 | 0 | 45 | 0.0 | 0.0 | 0.00 | 0.00 | 0.00 | 1028.0 | |
| 20260502031434 | 0 | 45 | 0.0 | 0.0 | 0.00 | 0.00 | 0.00 | 1028.0 | |
| 20260502030629 | 0 | 45 | 0.0 | 0.0 | 0.00 | 0.00 | 0.00 | 1028.0 | |
| 20260502025830 | 0 | 45 | 0.0 | 0.0 | 0.00 | 0.00 | 0.00 | 1028.0 | |
| 20260502025027 | 0 | 45 | 0.0 | 0.0 | 0.00 | 0.00 | 0.00 | 1028.1 | |
| 20260502024221 | 0 | 45 | 0.0 | 0.0 | 0.00 | 0.00 | 0.00 | 1028.1 | |
| 20260502023414 | 0 | 45 | 0.0 | 0.0 | 0.00 | 0.00 | 0.00 | 1028.0 | |
| 20260502022610 | 0 | 45 | 0.0 | 0.0 | 0.00 | 0.00 | 0.00 | 1028.0 | |
| 20260502021806 | 0 | 45 | 0.0 | 0.0 | 0.00 | 0.00 | 0.00 | 1028.0 | |
| 20260502021000 | 0 | 45 | 0.0 | 0.0 | 0.00 | 0.00 | 0.00 | 1028.0 | |
| 20260502020155 | 0 | 45 | 0.0 | 0.0 | 0.00 | 0.00 | 0.00 | 1028.0 | |
| 20260502015352 | 0 | 45 | 0.0 | 0.0 | 0.00 | 0.00 | 0.00 | 1028.1 | |
| 20260502014545 | 0 | 45 | 0.0 | 0.0 | 0.00 | 0.00 | 0.00 | 1028.1 | |
| 20260502013741 | 0 | 45 | 0.0 | 0.0 | 0.00 | 0.00 | 0.00 | 1028.1 | |
| 20260502012934 | 0 | 45 | 0.0 | 0.0 | 0.00 | 0.00 | 0.00 | 1028.1 | |
| 20260502012131 | 0 | 45 | 0.0 | 0.0 | 0.00 | 0.00 | 0.00 | 1028.1 | |
| 20260502011327 | 0 | 45 | 0.0 | 0.0 | 0.00 | 0.00 | 0.00 | 1028.1 | |
| 20260502010526 | 0 | 45 | 0.0 | 0.0 | 0.00 | 0.00 | 0.00 | 1028.0 | |
| 20260502005725 | 0 | 45 | 0.0 | 0.0 | 0.00 | 0.00 | 0.00 | 1028.0 | |
| 20260502004923 | 0 | 45 | 0.0 | 0.0 | 0.00 | 0.00 | 0.00 | 1028.0 | |
| 20260502004116 | 0 | 45 | 0.0 | 0.0 | 0.00 | 0.00 | 0.00 | 1028.0 | |
| 20260502003313 | 0 | 45 | 0.0 | 0.0 | 0.00 | 0.00 | 0.00 | 1028.1 | |
| 20260502002512 | 0 | 45 | 0.0 | 0.0 | 0.00 | 0.00 | 0.00 | 1028.1 | |
| 20260502001708 | 0 | 45 | 0.0 | 0.0 | 0.00 | 0.00 | 0.00 | 1028.0 | |
| 20260502000903 | 0 | 45 | 0.0 | 0.0 | 0.00 | 0.00 | 0.00 | 1028.0 | |
| 20260502000100 | 0 | 45 | 0.0 | 0.0 | 0.00 | 0.00 | 0.00 | 1028.0 | |
| 20260501235254 | 0 | 45 | 0.0 | 0.0 | 0.00 | 0.00 | 0.00 | 1027.9 | |
| 20260501234448 | 0 | 45 | 0.0 | 0.0 | 0.00 | 0.00 | 0.00 | 1028.0 | |
| 20260501233644 | 0 | 45 | 0.0 | 0.0 | 0.00 | 0.00 | 0.00 | 1028.0 | |
| 20260501232842 | 0 | 135 | 0.0 | 0.0 | 0.00 | 0.00 | 0.00 | 1028.0 |